DMSP 5D-3 F16 (USA 172) 1 28054U 03048A 26160.17644668 .00000005 00000+0 26386-4 0 9994 2 28054 98.9892 183.9516 0007366 161.1999 285.7375 14.14482499168353 METEOSAT-9 (MSG-2) 1 28912U 05049B 26159.78055565 .00000137 00000+0 00000+0 0 9993 2 28912 9.3415 54.2486 0001700 350.9221 178.6781 1.00268863 6913 DMSP 5D-3 F17 (USA 191) 1 29522U 06050A 26160.17931480 .00000034 00000+0 39822-4 0 9993 2 29522 98.7377 166.9132 0011316 79.9678 280.2772 14.14992014 11295 FENGYUN 3A 1 32958U 08026A 26159.80074574 .00000078 00000+0 57556-4 0 9997 2 32958 98.6881 100.7909 0009230 145.8494 214.3278 14.19569456934210 GOES 14 1 35491U 09033A 26159.87184090 -.00000241 00000+0 00000+0 0 9993 2 35491 1.6675 83.1445 0001938 5.1308 269.4392 1.00113863 6501 DMSP 5D-3 F18 (USA 210) 1 35951U 09057A 26160.15015801 .00000236 00000+0 14528-3 0 9993 2 35951 98.9034 140.9369 0009867 275.2032 84.8015 14.14892189858454 EWS-G2 (GOES 15) 1 36411U 10008A 26160.14057097 .00000035 00000+0 00000+0 0 9998 2 36411 1.2545 82.9961 0005439 38.4522 250.2902 1.00275828 59551 COMS 1 1 36744U 10032A 26154.99142485 -.00000334 00000+0 00000+0 0 9999 2 36744 4.7750 75.5286 0001016 4.5847 297.3769 1.00270643 50953 FENGYUN 3B 1 37214U 10059A 26160.24495439 .00000040 00000+0 44310-4 0 9996 2 37214 98.9623 206.2256 0021469 206.9006 230.0460 14.14840189806306 SUOMI NPP 1 37849U 11061A 26160.16415578 .00000062 00000+0 50580-4 0 9991 2 37849 98.7953 101.0951 0001974 24.6640 335.4630 14.19515711757305 METEOSAT-10 (MSG-3) 1 38552U 12035B 26160.05666905 .00000011 00000+0 00000+0 0 9996 2 38552 4.6514 61.0532 0001579 334.1660 242.8443 1.00275825 50773 METOP-B 1 38771U 12049A 26160.16500853 .00000075 00000+0 54073-4 0 9999 2 38771 98.6507 211.8240 0002699 38.3543 321.7826 14.21430470712121 INSAT-3D 1 39216U 13038B 26159.79716619 -.00000322 00000+0 00000+0 0 9991 2 39216 1.9033 82.6489 0000784 318.0387 272.9854 1.00273715 46996 FENGYUN 3C 1 39260U 13052A 26160.19905154 .00000079 00000+0 61426-4 0 9998 2 39260 98.4975 134.4409 0015617 49.4224 310.8308 14.15753188657435 METEOR-M 2 1 40069U 14037A 26160.19152322 .00000293 00000+0 15298-3 0 9995 2 40069 98.5114 136.2133 0006985 63.6506 296.5388 14.21459992618183 HIMAWARI-8 1 40267U 14060A 26159.84027778 -.00000259 00000+0 00000+0 0 9991 2 40267 0.0136 319.3355 0000818 138.5674 242.4936 1.00270961 42676 FENGYUN 2G 1 40367U 14090A 26159.86966831 -.00000287 00000+0 00000+0 0 9990 2 40367 5.6171 72.9157 0003416 153.8778 83.1535 1.00276806 41916 METEOSAT-11 (MSG-4) 1 40732U 15034A 26160.12982426 .00000080 00000+0 00000+0 0 9994 2 40732 3.1821 71.1557 0001707 6.3993 236.1386 1.00277816 7136 ELEKTRO-L 2 1 41105U 15074A 26159.98248360 -.00000102 00000+0 00000+0 0 9993 2 41105 6.6726 70.6232 0000970 284.4222 241.5278 1.00271818 38424 SENTINEL-3A 1 41335U 16011A 26160.15162983 .00000079 00000+0 50502-4 0 9996 2 41335 98.6249 227.6504 0001343 104.5625 255.5704 14.26737751536911 INSAT-3DR 1 41752U 16054A 26160.14239100 -.00000060 00000+0 00000+0 0 9995 2 41752 0.0844 87.5464 0010442 186.6911 108.5347 1.00270533 35731 HIMAWARI-9 1 41836U 16064A 26159.94192773 -.00000258 00000+0 00000+0 0 9998 2 41836 0.0279 160.6143 0000860 319.9078 256.6731 1.00272504 35126 GOES 16 1 41866U 16071A 26160.10723146 -.00000074 00000+0 00000+0 0 9999 2 41866 0.3190 85.6070 0000412 313.1860 152.6282 1.00270580 35024 FENGYUN 4A 1 41882U 16077A 26159.93863439 -.00000340 00000+0 00000+0 0 9998 2 41882 2.3009 80.3737 0008284 151.4317 127.2017 1.00273733 34846 CYGFM05 1 41884U 16078A 26159.84150097 .00024058 00000+0 33038-3 0 9992 2 41884 34.9576 315.8393 0006902 64.4552 295.6886 15.56298875527459 CYGFM04 1 41885U 16078B 26160.02967235 .00025990 00000+0 29794-3 0 9995 2 41885 34.9328 282.6908 0005936 114.0364 246.0983 15.61053774527728 CYGFM02 1 41886U 16078C 26159.72664299 .00035163 00000+0 35915-3 0 9990 2 41886 34.9407 279.4912 0006918 112.4011 247.7448 15.63951377527843 CYGFM01 1 41887U 16078D 26159.83382443 .00024044 00000+0 32211-3 0 9993 2 41887 34.9406 317.0150 0006778 57.2874 302.8503 15.56961058527409 CYGFM08 1 41888U 16078E 26160.06354300 .00024978 00000+0 30283-3 0 9995 2 41888 34.9435 295.2833 0007787 95.2901 264.8713 15.59587692527705 CYGFM07 1 41890U 16078G 26159.76717485 .00029388 00000+0 35491-3 0 9996 2 41890 34.9448 285.6049 0006371 110.5312 249.6097 15.59678638527683 CYGFM03 1 41891U 16078H 26160.05816882 .00024776 00000+0 29948-3 0 9998 2 41891 34.9404 285.6073 0005860 100.3931 259.7455 15.59683603527700 FENGYUN 3D 1 43010U 17072A 26160.18370395 .00000313 00000+0 16992-3 0 9992 2 43010 99.0126 134.4616 0002639 74.5875 285.5591 14.19738980443857 NOAA 20 (JPSS-1) 1 43013U 17073A 26160.10685611 .00000046 00000+0 42880-4 0 9997 2 43013 98.7771 99.6414 0000438 43.3555 316.7656 14.19510284443320 GOES 17 1 43226U 18022A 26160.11025043 -.00000166 00000+0 00000+0 0 9993 2 43226 0.9157 85.8611 0000581 12.6123 109.2210 1.00271617 30349 SENTINEL-3B 1 43437U 18039A 26160.19489507 .00000093 00000+0 56315-4 0 9995 2 43437 98.6249 227.8417 0000843 78.6879 281.4396 14.26739527422986 FENGYUN 2H 1 43491U 18050A 26160.07241723 -.00000114 00000+0 00000+0 0 9991 2 43491 3.0094 79.1692 0001581 126.3944 157.4108 1.00271216 29352 METOP-C 1 43689U 18087A 26160.18465237 .00000086 00000+0 59054-4 0 9995 2 43689 98.6646 219.9342 0001463 138.5926 221.5363 14.21509952393699 GEO-KOMPSAT-2A 1 43823U 18100A 26159.93950105 -.00000327 00000+0 00000+0 0 9996 2 43823 0.0504 132.2160 0002283 312.2158 279.3739 1.00270485 27548 METEOR-M2 2 1 44387U 19038A 26160.23660550 .00000103 00000+0 64577-4 0 9995 2 44387 98.9147 147.4049 0002298 59.7586 300.3819 14.24363727360165 ARKTIKA-M 1 1 47719U 21016A 26153.03917935 -.00000200 00000+0 00000+0 0 9993 2 47719 63.2379 59.8266 7283239 269.8643 14.6915 2.00628509 38489 FENGYUN 3E 1 49008U 21062A 26160.23893126 -.00000304 00000+0 -12273-3 0 9997 2 49008 98.7498 163.7357 0002771 98.6637 261.4853 14.19902509255456 GOES 18 1 51850U 22021A 26160.10081809 .00000113 00000+0 00000+0 0 9991 2 51850 0.0417 137.9243 0000475 358.3935 20.4561 1.00270989 6510 NOAA 21 (JPSS-2) 1 54234U 22150A 26160.14005245 .00000054 00000+0 46091-4 0 9996 2 54234 98.7059 99.0644 0001188 173.4078 186.7114 14.19564074185405 METEOSAT-12 (MTG-I1) 1 54743U 22170C 26160.16850193 .00000008 00000+0 00000+0 0 9999 2 54743 0.7287 21.5479 0003367 71.3802 224.8544 1.00271637 12893 TIANMU-1 03 1 55973U 23039A 26160.22435858 .00013723 00000+0 27296-3 0 9992 2 55973 97.5236 333.8838 0004162 118.9700 241.1967 15.47057866179600 TIANMU-1 04 1 55974U 23039B 26160.21689179 .00014125 00000+0 27522-3 0 9998 2 55974 97.5172 333.0292 0004754 116.1305 244.0434 15.47647348179616 TIANMU-1 05 1 55975U 23039C 26160.20474322 .00013306 00000+0 26543-3 0 9992 2 55975 97.5216 333.4814 0003803 133.5464 226.6101 15.46982981179580 TIANMU-1 06 1 55976U 23039D 26160.21978340 .00014064 00000+0 27496-3 0 9993 2 55976 97.5225 334.1246 0004082 130.5184 229.6421 15.47554577179613 FENGYUN 3G 1 56232U 23055A 26160.12520916 .00022526 00000+0 34170-3 0 9998 2 56232 49.9935 27.5514 0005565 167.7824 192.3279 15.54457419178755 METEOR-M2 3 1 57166U 23091A 26160.22909208 -.00000013 00000+0 12948-4 0 9999 2 57166 98.6092 215.3699 0003902 176.4936 183.6271 14.24046087153380 TIANMU-1 07 1 57399U 23101A 26160.18528869 .00005199 00000+0 18316-3 0 9997 2 57399 97.2598 211.0377 0003637 138.0873 222.0647 15.29713883160428 TIANMU-1 08 1 57400U 23101B 26160.15195333 .00005269 00000+0 18553-3 0 9994 2 57400 97.2587 210.7769 0005200 134.7170 225.4495 15.29718168160419 TIANMU-1 09 1 57401U 23101C 26160.20093517 .00005640 00000+0 19827-3 0 9990 2 57401 97.2545 210.2447 0004030 145.3328 214.8176 15.29747682160427 TIANMU-1 10 1 57402U 23101D 26160.16842438 .00005454 00000+0 19196-3 0 9992 2 57402 97.2625 211.2553 0005625 147.3653 212.7936 15.29717731160412 FENGYUN 3F 1 57490U 23111A 26160.15256780 .00000046 00000+0 42298-4 0 9990 2 57490 98.6841 230.3107 0001579 98.8052 261.3303 14.19937754147722 ARKTIKA-M 2 1 58584U 23198A 26154.30372208 .00000150 00000+0 00000+0 0 9990 2 58584 63.2209 155.9142 6898549 267.4684 18.7857 2.00591941 18047 TIANMU-1 11 1 58645U 23205A 26160.12413891 .00004937 00000+0 18936-3 0 9996 2 58645 97.3453 181.8079 0009870 43.2103 316.9909 15.26911442136295 TIANMU-1 12 1 58646U 23205B 26160.15984317 .00004904 00000+0 18841-3 0 9995 2 58646 97.3442 181.6004 0007715 30.7579 329.4111 15.26873625136287 TIANMU-1 13 1 58647U 23205C 26160.12571683 .00005084 00000+0 19610-3 0 9996 2 58647 97.3469 181.8382 0006887 11.5592 348.5803 15.26728063136273 TIANMU-1 14 1 58648U 23205D 26160.11115848 .00004656 00000+0 17954-3 0 9996 2 58648 97.3405 181.0120 0007865 14.9841 345.1630 15.26772199136277 TIANMU-1 19 1 58660U 23208A 26160.18519918 .00006873 00000+0 22881-3 0 9994 2 58660 97.4491 276.4456 0004500 1.5044 358.6210 15.31452164136106 TIANMU-1 20 1 58661U 23208B 26160.22921213 .00006746 00000+0 21641-3 0 9997 2 58661 97.4433 277.1169 0006745 4.6243 355.5060 15.32644193136206 TIANMU-1 21 1 58662U 23208C 26160.16428815 .00008224 00000+0 24499-3 0 9998 2 58662 97.4492 279.6977 0006607 356.8360 3.2840 15.34933496136331 TIANMU-1 22 1 58663U 23208D 26160.22968639 .00006383 00000+0 21605-3 0 9999 2 58663 97.4488 276.4330 0003972 31.1168 329.0308 15.30945829136119 TIANMU-1 15 1 58700U 24004A 26160.16942845 .00004779 00000+0 18341-3 0 9990 2 58700 97.4673 346.3591 0007497 29.3246 330.8412 15.26939822134558 TIANMU-1 16 1 58701U 24004B 26160.22276466 .00004736 00000+0 18331-3 0 9999 2 58701 97.4620 345.6583 0006616 33.8863 326.2797 15.26665718134567 TIANMU-1 17 1 58702U 24004C 26160.20821443 .00004779 00000+0 18495-3 0 9997 2 58702 97.4648 346.1257 0006294 39.7614 320.4085 15.26665264134554 TIANMU-1 18 1 58703U 24004D 26160.18595020 .00004798 00000+0 18428-3 0 9991 2 58703 97.4665 346.3539 0004779 39.4719 320.6867 15.26923899134559 INSAT-3DS 1 58990U 24033A 26160.07293722 -.00000140 00000+0 00000+0 0 9994 2 58990 0.0151 152.7656 0001230 281.1643 291.8663 1.00272939 46988 METEOR-M2 4 1 59051U 24039A 26160.16443845 .00000021 00000+0 29139-4 0 9998 2 59051 98.7007 119.5635 0006809 183.9003 176.2123 14.22428777118129 GOES 19 1 60133U 24119A 26160.11311044 -.00000232 00000+0 00000+0 0 9996 2 60133 0.0258 161.6822 0000463 343.9728 77.3734 1.00272054 6889 MTG-S1 1 64723U 25143A 26160.16850193 -.00000015 00000+0 00000+0 0 9990 2 64723 0.6105 337.0829 0001025 26.6988 310.9500 1.00271614 3334 METOP-SGA1 1 65159U 25172A 26160.18496220 .00000033 00000+0 34760-4 0 9999 2 65159 98.6646 220.0586 0000931 88.3365 271.7919 14.21508488 42650 FENGYUN 3H 1 65815U 25219A 26160.07837038 .00000052 00000+0 45008-4 0 9992 2 65815 98.6766 101.0053 0001636 83.0068 277.1294 14.19919056 36231